sat.trackr.live / text

‹ back to catalog

YAOGAN-43 02E

NORAD 60949 · 2024-156E

PAYLOAD ACTIVE UNKNOWN

§ Identity

Operator
Country
PRC
Launch date
2024-09-03
Launch site
XICLF
Launch vehicle
Mass (kg)
RCS (m²)

External: N2YO · Heavens-Above · Gunter

§ Orbital elements

Epoch: 2026-05-24T23:36:43.020864Z

Period
94.55 min
Inclination
34.9966°
Eccentricity
0.0000974
Mean motion
15.23012200 rev/d
Perigee alt
496.1 km
Apogee alt
497.4 km
Semi-major
6,874.9 km
B*
5.4768e-4
RAAN
344.1084°
Arg perigee
217.4356°
Mean anomaly
142.6291°
Rev number
9,590

§ Raw data

YAOGAN-43 02E1 60949U 24156E   26144.98383126  .00013185  00000+0  54768-3 0  99932 60949  34.9966 344.1084 0000974 217.4356 142.6291 15.23012200 95903

JSON: /api/v1/satellites/60949 · /tle

For live sub-satellite position, see the globe view (requires WebGL).

§ Visibility from observer

Set your observer location to see the next 7 days of passes ≥ 10°. The values pass through the URL so the page stays shareable.

No JS? Fill the form by hand. The geolocation button needs JavaScript.